Location: ????????
(37.6846°N, 24.0673°E)
Time: 14:49:52
(UTC+00:00)

Spot 4 Rocket - Pass Details

Date: 14 July 2020
Orbit: 777 x 781 km, 98.7° (Epoch: 03 August)

Event Time Altitude Azimuth Distance (km) Brightness Sun altitude
Rises 01:24:56 0° 14° (NNE) 3,268 8.3 -17.8°
Reaches altitude 10° 01:27:16 10° 15° (NNE) 2,337 7.4 -17.5°
Maximum altitude 01:32:26 83° 104° (ESE) 789 4.0 -16.8°
Enters shadow 01:36:00 21° 191° (S) 1,714 5.3 -16.3°
